[[{"header":{"parameterUnit":"m.s-1","parameterCategory":1,"la1":30.2991,"la2":30.254,"lo1":-89.0895,"lo2":-89.0444,"dy":0.0017,"dx":0.0017,"nx":28,"ny":28,"refTime":"2024-03-19T21:00:00:Z","depth":0,"parameterNumber":2,"parameterNumberName":"U-component_of_WINDS"},"data":[0,0,0,0,0,0,0,0,0,0,0,0,0,0,0,0,0,0,0,0,0,0,0,0,0,0,0,0,0,0,0,0,0,0,0,0,0,0,0,0,0,0,0,0,0,0,0,0,0,0,0,0,0,0,0,0,0,0,1.1163,1.1164,0,1.1194,1.1194,1.1194,1.1189,1.1189,1.1188,1.1188,1.1216,1.1218,1.1219,0,0,0,0,0,0,0,0,0,0,0,0,0,1.1098,1.1099,1.1163,1.1164,1.1164,1.1194,1.1194,1.1194,1.1189,1.1189,1.1188,1.1188,1.1216,1.1217,1.1219,0,0,0,0,0,0,0,0,0,0,0,0,0,1.1127,1.1099,1.1163,1.1165,1.1166,1.1194,1.1194,1.1195,1.119,1.1189,1.1188,1.1187,1.1216,1.1217,1.1219,1.1246,0,0,1.1225,1.1226,0,0,0,0,0,0,0,0,1.1125,1.1129,1.1164,1.1165,1.1166,1.1187,1.1181,1.1212,1.119,1.118,1.1188,1.1187,1.1207,1.121,1.1217,1.1248,1.1249,1.1225,1.1226,1.1227,1.1228,0,0,0,0,0,0,0,1.1123,1.1128,1.1175,1.1165,1.1166,1.1163,1.1167,1.1187,1.1198,1.1181,1.1181,1.1185,1.1207,1.1215,1.1218,1.1249,1.1225,1.1227,1.1228,1.1229,1.1303,1.1304,0,0,0,0,0,0,1.1121,1.1126,1.1174,1.1176,1.1143,1.1165,1.1169,1.1181,1.1197,1.1199,1.1185,1.1184,1.1212,1.1215,1.1219,1.1251,1.1227,1.1229,1.123,1.1302,1.1303,1.1304,0,0,0,0,0,0,1.112,1.1125,1.1173,1.1151,1.1157,1.1167,1.1181,1.1182,1.119,1.1201,1.1202,1.1192,1.1212,1.1216,1.1239,1.1252,1.123,1.1231,1.1301,1.1302,1.1303,1.1315,0,0,0,0,0,0,1.1118,1.1125,1.1136,1.1151,1.1158,1.1194,1.1181,1.1183,1.1193,1.1192,1.1207,1.1209,1.1212,1.1237,1.1241,1.1254,1.1233,1.13,1.1302,1.1303,1.1314,1.1317,1.1319,0,0,0,0,0,1.1115,1.1138,1.1137,1.1142,1.1173,1.1195,1.1199,1.1202,1.1194,1.1205,1.1212,1.1208,1.125,1.1239,1.1244,1.1257,1.1299,1.1301,1.1303,1.1313,1.1316,1.1319,0,0,0,0,0,0,1.1123,1.114,1.1139,1.1167,1.118,1.1194,1.1208,1.1206,1.1221,1.1219,1.1222,1.1226,1.1249,1.1256,1.1244,1.1284,1.1273,1.1276,1.1279,1.1282,1.1285,1.1282,1.1234,0,0,0,0,0,1.1128,1.1145,1.1159,1.1183,1.1189,1.1197,1.1207,1.1209,1.1222,1.1227,1.1236,1.1247,1.1263,1.1273,1.1288,1.1315,1.1318,1.1327,1.133,1.1332,1.1334,1.1348,1.1351,1.131,1.131,1.131,0,0,1.1138,1.1149,1.116,1.1184,1.1194,1.1211,1.1202,1.1221,1.1233,1.123,1.1252,1.1259,1.1272,1.1297,1.1309,1.1304,1.1346,1.1334,1.1336,1.1337,1.135,1.1354,1.1357,1.1311,1.1311,1.1311,0,0,1.1165,1.1176,1.1197,1.1207,1.1223,1.1228,1.1233,1.1248,1.1252,1.1275,1.1273,1.1287,1.1314,1.1324,1.1332,1.1363,1.1359,1.1367,1.1381,1.1395,1.1398,1.1401,1.141,1.1414,1.137,1.137,1.137,0,1.1175,1.1202,1.1207,1.1226,1.1236,1.1235,1.1255,1.1264,1.1284,1.129,1.1284,1.1318,1.1327,1.1354,1.1361,1.1368,1.1373,1.1365,1.1397,1.14,1.1403,1.1412,1.1416,1.1371,1.1371,1.137,1.137,0,1.1214,1.1232,1.1247,1.1266,1.1278,1.1297,1.1304,1.1315,1.1316,1.1322,1.1344,1.1355,1.1372,1.1379,1.138,1.1406,1.1402,1.1397,1.1385,1.1407,1.1416,1.142,1.1372,1.1371,1.1371,1.1371,0,0,1.1246,1.1268,1.1273,1.1281,1.1298,1.1312,1.1331,1.1348,1.1357,1.1371,1.1386,1.1409,1.1404,1.1414,1.1415,1.1427,1.1449,1.142,1.1421,1.1424,1.1477,1.148,1.1484,1.1448,1.1448,1.1449,1.1476,0,1.1274,1.1308,1.1313,1.1342,1.1359,1.1358,1.1374,1.1386,1.1391,1.1405,1.1411,1.1427,1.1421,1.1426,1.1438,1.1444,1.146,1.1442,1.146,1.1461,1.1456,1.1489,1.1492,1.1517,1.1479,1.148,1.148,0,1.1311,1.1326,1.1357,1.1372,1.1379,1.1393,1.1409,1.1423,1.1436,1.1439,1.145,1.145,1.1468,1.1457,1.1482,1.147,1.1478,1.1482,1.1483,1.1484,1.1471,1.149,1.1525,1.1528,1.1486,1.1485,1.1485,0,1.1329,1.1358,1.138,1.1387,1.1405,1.1415,1.1423,1.1435,1.1445,1.1458,1.1464,1.148,1.1488,1.1499,1.1503,1.1495,1.1527,1.1517,1.1529,1.1529,1.1535,1.1535,1.1571,1.1542,1.1542,1.1542,1.1542,0,1.136,1.1379,1.1389,1.1402,1.1423,1.1428,1.1449,1.1456,1.1466,1.148,1.148,1.1494,1.1499,1.1512,1.1515,1.1535,1.1539,1.1541,1.1541,1.154,1.154,1.1544,1.1542,1.1543,1.1543,1.1543,1.1543,0,1.1384,1.1391,1.1415,1.143,1.1434,1.1449,1.1461,1.1474,1.1479,1.1497,1.1502,1.151,1.1526,1.1532,1.1551,1.1553,1.1575,1.1575,1.1571,1.1571,1.1582,1.1581,1.1622,1.1628,1.1596,1.1597,1.1597,0,1.1402,1.1417,1.1433,1.1443,1.1451,1.1467,1.1477,1.1482,1.1493,1.1508,1.1519,1.1535,1.1548,1.1573,1.1581,1.1595,1.1594,1.1608,1.1596,1.1594,1.1593,1.1591,1.1592,1.1609,1.161,1.161,1.161,0,1.1433,1.1436,1.1451,1.1467,1.148,1.1493,1.1505,1.1513,1.152,1.1531,1.1548,1.1558,1.1578,1.1593,1.1608,1.1615,1.1613,1.1614,1.1617,1.1616,1.1613,1.1613,1.1575,1.1613,1.1612,1.1612,1.1612,1.1612,1.1454,1.1467,1.148,1.1497,1.1507,1.1518,1.1531,1.1538,1.1552,1.1569,1.1572,1.1589,1.1601,1.1621,1.1628,1.1641,1.1637,1.1642,1.1644,1.1645,1.1645,1.1612,1.1644,1.1644,1.1644,1.1644,1.1644,0,1.1484,1.1493,1.1508,1.1526,1.1538,1.1537,1.1551,1.1561,1.1577,1.1588,1.1601,1.162,1.1635,1.1643,1.1658,1.1667,1.1666,1.1671,1.1669,1.1671,1.1648,1.1643,1.1671,1.1671,1.1671,1.1671,1.1671,1.1671,1.1501,1.1522,1.1527,1.1552,1.1561,1.1579,1.1586,1.1597,1.1606,1.1627,1.1639,1.1645,1.1655,1.1671,1.1684,1.1686,1.1691,1.1695,1.1697,1.1675,1.1672,1.167,1.1665,1.1696,1.1696,1.1718,1.1718,1.1718]},{"header":{"parameterUnit":"m.s-1","parameterCategory":1,"la1":30.2991,"la2":30.254,"lo1":-89.0895,"lo2":-89.0444,"dy":0.0017,"dx":0.0017,"nx":28,"ny":28,"refTime":"2024-03-19T21:00:00:Z","depth":0,"parameterNumber":3,"parameterNumberName":"V-component_of_WINDS"},"data":[0,0,0,0,0,0,0,0,0,0,0,0,0,0,0,0,0,0,0,0,0,0,0,0,0,0,0,0,0,0,0,0,0,0,0,0,0,0,0,0,0,0,0,0,0,0,0,0,0,0,0,0,0,0,0,0,0,0,-1.8391,-1.8392,0,-1.8471,-1.8472,-1.8473,-1.8481,-1.848,-1.8479,-1.8479,-1.856,-1.8563,-1.8566,0,0,0,0,0,0,0,0,0,0,0,0,0,-1.8246,-1.8248,-1.8391,-1.8392,-1.8393,-1.8471,-1.8472,-1.8473,-1.8481,-1.848,-1.8479,-1.8478,-1.8559,-1.8563,-1.8566,0,0,0,0,0,0,0,0,0,0,0,0,0,-1.8315,-1.8249,-1.8391,-1.8407,-1.8409,-1.8471,-1.8472,-1.8474,-1.8481,-1.848,-1.8479,-1.8478,-1.8558,-1.8563,-1.8567,-1.8619,0,0,-1.858,-1.8582,0,0,0,0,0,0,0,0,-1.8311,-1.8321,-1.8403,-1.8406,-1.8408,-1.8465,-1.8451,-1.8522,-1.8482,-1.8454,-1.8479,-1.8477,-1.853,-1.8536,-1.8554,-1.8623,-1.8626,-1.8581,-1.8584,-1.8585,-1.8587,0,0,0,0,0,0,0,-1.8307,-1.8317,-1.8423,-1.8404,-1.8407,-1.841,-1.8418,-1.8464,-1.8498,-1.8456,-1.8457,-1.8466,-1.8531,-1.855,-1.8556,-1.8628,-1.8581,-1.8585,-1.8587,-1.8589,-1.8743,-1.8745,0,0,0,0,0,0,-1.8299,-1.8313,-1.842,-1.8425,-1.8356,-1.8413,-1.8423,-1.8448,-1.8497,-1.8504,-1.8467,-1.8466,-1.8543,-1.8551,-1.8559,-1.8623,-1.8585,-1.859,-1.8592,-1.8742,-1.8744,-1.8745,0,0,0,0,0,0,-1.8296,-1.8308,-1.8417,-1.837,-1.8384,-1.8417,-1.8445,-1.845,-1.8469,-1.8506,-1.8512,-1.8481,-1.8542,-1.8553,-1.8604,-1.8626,-1.8592,-1.8596,-1.874,-1.8742,-1.8744,-1.8752,0,0,0,0,0,0,-1.8292,-1.8307,-1.8327,-1.837,-1.8386,-1.8461,-1.8447,-1.8453,-1.8477,-1.8476,-1.852,-1.8526,-1.8542,-1.8597,-1.8608,-1.8631,-1.8599,-1.8738,-1.8741,-1.8744,-1.8749,-1.8754,-1.8757,0,0,0,0,0,-1.8286,-1.8326,-1.8328,-1.8341,-1.8412,-1.8462,-1.8471,-1.8489,-1.8479,-1.8499,-1.8522,-1.8524,-1.8622,-1.8603,-1.8615,-1.864,-1.8737,-1.874,-1.8743,-1.8748,-1.8753,-1.8757,0,0,0,0,0,0,-1.8285,-1.8332,-1.8335,-1.839,-1.8422,-1.8463,-1.849,-1.8494,-1.853,-1.8528,-1.8549,-1.8559,-1.8609,-1.863,-1.8607,-1.8693,-1.8678,-1.8684,-1.8677,-1.8683,-1.8686,-1.868,-1.8603,0,0,0,0,0,-1.8291,-1.8328,-1.8367,-1.8411,-1.8427,-1.8456,-1.8478,-1.8489,-1.8524,-1.8537,-1.8564,-1.8598,-1.8636,-1.866,-1.8698,-1.8753,-1.8762,-1.8776,-1.878,-1.8783,-1.8787,-1.8818,-1.8825,-1.8756,-1.8756,-1.8756,0,0,-1.8304,-1.8334,-1.8356,-1.8412,-1.8438,-1.8476,-1.8467,-1.8507,-1.8535,-1.8543,-1.8593,-1.8615,-1.8653,-1.8706,-1.8731,-1.8725,-1.8809,-1.8787,-1.8789,-1.8792,-1.8822,-1.8829,-1.8834,-1.8758,-1.8758,-1.8757,0,0,-1.8346,-1.8373,-1.8413,-1.844,-1.848,-1.8498,-1.8508,-1.8549,-1.8563,-1.8614,-1.8621,-1.8655,-1.872,-1.8747,-1.8769,-1.8823,-1.8826,-1.8834,-1.8854,-1.8884,-1.8889,-1.8894,-1.8913,-1.892,-1.8839,-1.8839,-1.8839,0,-1.8357,-1.8414,-1.8433,-1.8473,-1.8497,-1.8507,-1.8547,-1.8572,-1.8622,-1.8639,-1.8631,-1.8714,-1.874,-1.88,-1.8813,-1.8831,-1.8842,-1.8829,-1.8887,-1.8892,-1.8897,-1.8915,-1.8922,-1.884,-1.884,-1.8839,-1.8839,0,-1.8425,-1.8465,-1.8492,-1.854,-1.8568,-1.8608,-1.8633,-1.8659,-1.8668,-1.8687,-1.8739,-1.8771,-1.8815,-1.883,-1.8839,-1.8892,-1.8886,-1.8883,-1.8869,-1.8904,-1.8921,-1.8929,-1.8841,-1.884,-1.884,-1.884,0,0,-1.8469,-1.8527,-1.8537,-1.8559,-1.8604,-1.8634,-1.8675,-1.8718,-1.874,-1.8774,-1.8809,-1.8864,-1.8861,-1.8886,-1.8899,-1.8925,-1.8965,-1.8918,-1.8919,-1.8925,-1.9024,-1.9026,-1.9034,-1.8967,-1.8969,-1.897,-1.9021,0,-1.8516,-1.8588,-1.8607,-1.8669,-1.8705,-1.8715,-1.875,-1.8782,-1.8801,-1.8835,-1.8857,-1.8896,-1.8889,-1.8904,-1.8931,-1.8954,-1.8985,-1.8951,-1.9,-1.9001,-1.8989,-1.9043,-1.9045,-1.9092,-1.9028,-1.9029,-1.903,0,-1.8581,-1.8616,-1.8682,-1.8722,-1.8738,-1.877,-1.8811,-1.8843,-1.8879,-1.8892,-1.892,-1.893,-1.8973,-1.8957,-1.9016,-1.8993,-1.9014,-1.9029,-1.9031,-1.9036,-1.9017,-1.9049,-1.9107,-1.9114,-1.9041,-1.904,-1.9039,0,-1.8605,-1.867,-1.8717,-1.8736,-1.8784,-1.8806,-1.8827,-1.8862,-1.8887,-1.8923,-1.8939,-1.8979,-1.9001,-1.9032,-1.9053,-1.904,-1.9111,-1.9097,-1.9122,-1.9122,-1.9136,-1.9135,-1.9198,-1.915,-1.915,-1.915,-1.915,0,-1.8655,-1.8695,-1.8729,-1.8758,-1.8803,-1.8824,-1.8867,-1.8889,-1.892,-1.8953,-1.8964,-1.8996,-1.9021,-1.9056,-1.9073,-1.9119,-1.9129,-1.914,-1.9144,-1.9139,-1.9138,-1.9153,-1.915,-1.9152,-1.9152,-1.9151,-1.9151,0,-1.869,-1.8714,-1.8767,-1.8808,-1.882,-1.8851,-1.8886,-1.8915,-1.8935,-1.8977,-1.8989,-1.902,-1.9062,-1.9086,-1.9138,-1.9149,-1.9201,-1.9203,-1.9189,-1.919,-1.9214,-1.9211,-1.9289,-1.93,-1.9245,-1.9246,-1.9246,0,-1.872,-1.8751,-1.8796,-1.8819,-1.8841,-1.8878,-1.8904,-1.8926,-1.8951,-1.8995,-1.9019,-1.9061,-1.9096,-1.9162,-1.9189,-1.923,-1.9233,-1.9257,-1.9239,-1.9233,-1.9233,-1.9231,-1.9234,-1.926,-1.9261,-1.9261,-1.9262,0,-1.8772,-1.8782,-1.8818,-1.8859,-1.8888,-1.8921,-1.8954,-1.8972,-1.9,-1.9029,-1.9071,-1.9098,-1.9152,-1.9194,-1.9236,-1.9258,-1.9265,-1.9267,-1.9275,-1.927,-1.926,-1.9265,-1.9197,-1.9265,-1.9265,-1.9265,-1.9264,-1.9264,-1.8805,-1.8833,-1.8869,-1.8908,-1.8935,-1.8966,-1.8995,-1.9018,-1.9054,-1.91,-1.9111,-1.9155,-1.9191,-1.9249,-1.9272,-1.9308,-1.9303,-1.9315,-1.9318,-1.932,-1.9321,-1.9255,-1.9315,-1.9315,-1.9315,-1.9315,-1.9315,0,-1.8856,-1.888,-1.8917,-1.8962,-1.8993,-1.8997,-1.9033,-1.9059,-1.9098,-1.9131,-1.9165,-1.9214,-1.9255,-1.9286,-1.9328,-1.935,-1.9354,-1.9361,-1.9359,-1.9364,-1.9322,-1.9311,-1.9357,-1.9357,-1.9357,-1.9357,-1.9357,-1.9357,-1.8887,-1.8934,-1.8949,-1.9009,-1.9033,-1.9077,-1.9097,-1.9125,-1.9151,-1.9206,-1.924,-1.926,-1.9292,-1.9336,-1.9374,-1.9382,-1.9396,-1.9402,-1.9411,-1.9371,-1.9367,-1.9362,-1.9352,-1.9405,-1.9405,-1.9449,-1.945,-1.945]}]]